STARLINK-32336, 61004

Orbit data source: Space-Track

STARLINK-32336, 61004 is a payload satellite owned by SpaceX/Seattle (US) in LEO that was launched on Thu, 05 Sep 2024 UTC via an FALCON 9 launch vehicle from the Air Force Eastern Test Range (AFETR). Payloads include a variety of satellites, spacecraft, and rockets equipped with specific instruments for various scientific and technological missions. These include communications satellites like Starlink; space stations such as the ISS; scientific satellites like the Hubble; Earth observation satellites from companies like Planet Labs, Umbra, and HawkEye 360; GPS; miniature CubeSats for education and research; and military/defense satellites.

Loading next visibility...
STARLINK-32336 details
Identifier
61004, 2024-158Q
Orbit
LEO
Last TLE update21 hours ago
Origin
Flag of USSpaceX/Seattle (US)
ManufacturerSpaceX/Seattle
MissionOperational spacecraft
Bus & MotorSTARLINK V2M, Unknown motor
Mass730 kg wet, ~700 kg dry
Launch date (UTC)
2024-09-05 (4 months ago)
Launch vehicle
FALCON 9
Launch site
Air Force Eastern Test Range (AFETR)
Object type
Payload
Rocket body
Debris
Shape & HBRUnknown
Radar Cross SectionLarge (>1 m²)

Expand to show TLE details & history

TLE from 21 hours ago
0 STARLINK-32336
1 61004U 24158Q   24355.64111981  .00001238  00000-0  40946-4 0  9992
2 61004  53.1614 328.9362 0001375  94.3889 265.7273 15.39609067 17650
Epoch: 2024-12-20T15:23Z
Definitive object data (Epoch: 2024-12-20T15:23:12.751Z)
Latitude-0.00003°
Longitude8.42933°
Altitude448.238 km
Speed7.644 km/s
True Right ascension21h 55m 44s
True Declination0° 00' 00"
Sunlit
Object was in daylight at TLE epoch
Visualization TLE readout
Latitude-49.71916°
Longitude-57.32304°
Altitude465.313 km
Speed7.633 km/s
Apparent Right ascension20h 56m 30s
Apparent Declination-55° 53' 08"
Sunlit
Object is in daylight
Visualization observer readout
Local Sidereal Time11:55:03
Azimuth133.878° SE
Elevation-56.859°
Doppler factor1
Orbital elements
Apogee altitude448.46 km
Perigee altitude446.583 km
Semi-major axis6,825.659 km
Eccentricity0.0001375
Inclination53.1614°
RAAN328.9362°
Arg. of periapsis94.3889°
True anomaly265.71159°
Mean anomaly265.7273°
Eccentric anomaly265.71944°
Mean motion3.84881 °/min
BSTAR0.000040946
Orbital period93.54 mins
Loading maneuver chart data...
Loading historical data...
Loading historical data...
Loading historical data...
Loading historical data...
Loading historical data...
Loading historical data...
Loading historical data...

STARLINK-32336 Visibility forecast

Observer location: undefined°, undefined

Span
Click to sort rows by Start time (UTC) header in descending order
Start Az.
Max El. time (UTC)
Max El. Az.
Max El.
End time (UTC)
End Az.
5 mins2024-12-22 00:16:11.107Z190.456° SSW2024-12-22 00:18:11.107Z145.314° SSE27.886°2024-12-22 00:21:11.107Z71.543° E
4 mins2024-12-22 01:54:11.107Z284.397° WNW2024-12-22 01:56:11.107Z342.726° N25.74°2024-12-22 01:58:11.107Z25.61° NE
4 mins2024-12-22 06:49:11.107Z344.429° N2024-12-22 06:51:11.107Z43.627° NE26.468°2024-12-22 06:53:11.107Z87.682° E
5 mins2024-12-22 08:26:11.107Z278.687° WNW2024-12-22 08:28:11.107Z224.376° SW27.318°2024-12-22 08:31:11.107Z164.211° S
|